Location: Koussan�
(15.2012°N, 12.5548°W)
Time: 11:48:32
(UTC+00:00)

CZ-2C R/B - Pass Details

Date: 20 October 2020
Orbit: 703 x 909 km, 98.1° (Epoch: 26 November)

Event Time Altitude Azimuth Distance (km) Brightness Sun altitude
Rises 19:31:22 0° 156° (SSE) 3,462 6.2 -16.3°
Reaches altitude 10° 19:33:48 10° 151° (SSE) 2,545 5.5 -16.8°
Maximum altitude 19:39:19 51° 76° (ENE) 1,121 3.4 -18.2°
Drops below altitude 10° 19:44:56 10° 2° (N) 2,588 5.6 -19.5°
Sets 19:47:24 0° 357° (N) 3,526 6.4 -20.1°
